AV279 Weather Reports


Display with metric or nautical units.
time (UTC)temp
F
wind
direction
speed
MPH
gust
MPH
rain 1hr
in
rain 24hr
in
rain mn
in
humidity
%
barometer
mb
20260904103341 71 248 7.0 11.0 0.00 0.02 0.02 84 1012.4
20260904102330 71 270 5.0 9.0 0.00 0.02 0.02 84 1012.6
20260904101319 71 293 6.0 10.0 0.00 0.02 0.02 84 1012.5
20260904100319 71 270 7.0 9.0 0.00 0.02 0.02 84 1012.5
20260904095330 71 270 8.0 15.0 0.00 0.02 0.02 85 1012.6
20260904094319 71 225 6.0 12.0 0.00 0.02 0.02 85 1012.5
20260904093319 71 270 8.0 17.0 0.00 0.02 0.02 85 1012.5
20260904092339 72 270 7.0 14.0 0.00 0.02 0.02 85 1012.5
20260904091351 71 270 4.0 8.0 0.00 0.02 0.02 85 1012.3
20260904090319 71 270 6.0 10.0 0.00 0.02 0.02 85 1012.3
20260904085330 71 248 7.0 12.0 0.00 0.02 0.02 86 1012.2
20260904084319 71 270 6.0 10.0 0.00 0.02 0.02 87 1012.0
20260904083330 71 270 8.0 14.0 0.00 0.02 0.02 87 1011.9
20260904082339 71 270 5.0 9.0 0.00 0.02 0.02 88 1011.7
20260904081329 71 248 8.0 13.0 0.00 0.02 0.02 88 1011.9
20260904080319 71 225 7.0 14.0 0.00 0.02 0.02 89 1011.9
20260904075518 70 248 8.0 11.0 0.00 0.02 0.02 91 1012.0
20260904074749 69 270 6.0 10.0 0.00 0.02 0.02 91 1012.1
20260904073738 69 270 5.0 7.0 0.00 0.02 0.02 90 1012.3
20260904072749 69 248 7.0 11.0 0.00 0.02 0.02 89 1012.3
20260904071719 69 270 5.0 8.0 0.00 0.02 0.02 89 1012.4
20260904070719 70 270 7.0 10.0 0.00 0.02 0.02 88 1012.4
20260904065759 70 248 6.0 9.0 0.00 0.02 0.02 88 1012.2
20260904064739 69 248 6.0 11.0 0.00 0.02 0.02 89 1012.2
20260904063740 69 248 11.0 20.0 0.00 0.02 0.02 90 1012.1
20260904062718 69 225 9.0 18.0 0.00 0.02 0.02 90 1011.9
20260904061719 69 225 10.0 19.0 0.01 0.02 0.02 91 1011.8
20260904060740 68 270 8.0 17.0 0.01 0.02 0.02 92 1012.2
20260904055718 68 225 7.0 11.0 0.01 0.02 0.02 92 1012.2
20260904054729 68 225 9.0 15.0 0.01 0.02 0.02 92 1012.3
20260904053719 68 225 6.0 10.0 0.01 0.02 0.02 92 1012.3
20260904052740 68 225 7.0 14.0 0.02 0.02 0.02 92 1012.4
20260904051740 68 225 6.0 10.0 0.01 0.01 0.01 92 1012.5
20260904050800 68 270 4.0 8.0 0.01 0.01 0.01 91 1012.7
20260904045729 68 270 5.0 9.0 0.01 0.01 0.01 91 1013.0
20260904044729 68 225 2.0 6.0 0.01 0.01 0.01 92 1013.2
20260904043811 69 270 2.0 4.0 0.01 0.01 0.01 91 1013.3
20260904042740 69 248 3.0 6.0 0.00 0.00 0.00 91 1013.5
20260904041740 69 225 4.0 8.0 0.00 0.00 0.00 91 1013.4
20260904040718 69 270 3.0 4.0 0.00 0.00 0.00 91 1013.5
20260904035740 69 248 5.0 8.0 0.00 0.00 0.00 91 1013.5
20260904034718 69 248 6.0 8.0 0.00 0.00 0.00 91 1013.5
20260904033809 69 225 7.0 9.0 0.00 0.00 0.00 90 1013.6
20260904032729 69 270 6.0 9.0 0.00 0.00 0.00 90 1013.6
20260904031718 69 225 7.0 11.0 0.00 0.00 0.00 90 1013.6
20260904030729 69 225 7.0 18.0 0.00 0.00 0.00 90 1013.8
20260904025719 69 270 7.0 13.0 0.00 0.00 0.00 90 1014.1
20260904024718 69 248 5.0 8.0 0.00 0.00 0.00 90 1014.1
20260904023719 69 225 5.0 9.0 0.00 0.00 0.00 90 1014.2
20260904022718 68 270 5.0 10.0 0.00 0.00 0.00 90 1014.2
20260904021718 68 225 8.0 13.0 0.00 0.00 0.00 90 1014.3
20260904020718 68 225 7.0 11.0 0.00 0.00 0.00 90 1014.4
20260904015750 68 248 6.0 13.0 0.00 0.00 0.00 90 1014.4
20260904014750 68 248 5.0 12.0 0.00 0.00 0.00 90 1014.7
20260904013751 68 248 5.0 11.0 0.00 0.00 0.00 90 1014.8
20260904012752 68 248 5.0 9.0 0.00 0.00 0.00 90 1014.9
20260904011729 68 225 2.0 4.0 0.00 0.00 0.00 90 1015.0
20260904010718 68 270 3.0 4.0 0.00 0.00 0.00 89 1015.2
20260904005729 68 270 5.0 9.0 0.00 0.00 0.00 89 1015.3
20260904004701 68 248 5.0 6.0 0.00 0.00 0.00 89 1015.3
20260904003720 68 270 6.0 11.0 0.00 0.00 0.00 89 1015.5
20260904002720 68 248 5.0 7.0 0.00 0.00 0.00 89 1015.7
20260904001740 68 225 5.0 10.0 0.00 0.00 0.00 89 1015.7
20260904000742 68 248 5.0 9.0 0.00 0.00 0.00 89 1015.7
20260903235718 69 225 5.0 8.0 0.00 0.00 0.00 89 1015.7
20260903234740 69 248 5.0 8.0 0.00 0.00 0.00 89 1015.7
20260903233729 69 248 6.0 10.0 0.00 0.00 0.00 89 1015.8
20260903232718 69 248 5.0 7.0 0.00 0.00 0.00 89 1015.9
20260903231739 69 248 6.0 13.0 0.00 0.00 0.00 89 1016.0
20260903230718 69 248 6.0 11.0 0.00 0.00 0.00 90 1016.0
20260903225719 69 180 5.0 9.0 0.00 0.00 0.00 90 1016.1
20260903224718 69 270 3.0 6.0 0.00 0.00 0.00 90 1016.3
20260903223719 70 293 4.0 6.0 0.00 0.00 0.00 90 1016.4
20260903222719 70 248 3.0 4.0 0.00 0.00 0.00 89 1016.5
20260903221718 70 270 4.0 7.0 0.00 0.00 0.00 89 1016.6
20260903220729 70 225 6.0 9.0 0.00 0.00 0.00 89 1016.7
20260903215718 70 270 3.0 6.0 0.00 0.00 0.00 89 1016.6
20260903214718 70 248 4.0 8.0 0.00 0.00 0.00 89 1016.6
20260903213811 70 225 4.0 6.0 0.00 0.00 0.00 89 1016.7
20260903212718 70 270 3.0 6.0 0.00 0.00 0.00 89 1016.7
20260903211718 70 225 3.0 5.0 0.00 0.00 0.00 88 1016.6
20260903210718 70 248 7.0 11.0 0.00 0.00 0.00 89 1016.6
20260903205718 70 270 5.0 8.0 0.00 0.00 0.00 89 1016.9
20260903204729 70 248 6.0 12.0 0.00 0.00 0.00 89 1016.9
20260903203729 70 270 4.0 6.0 0.00 0.00 0.00 89 1017.0
20260903202752 70 248 7.0 12.0 0.00 0.00 0.00 89 1017.2
20260903201718 70 270 3.0 5.0 0.00 0.00 0.00 90 1017.4
20260903200802 70 225 8.0 14.0 0.00 0.00 0.00 90 1017.4
20260903195718 70 248 8.0 14.0 0.00 0.00 0.00 90 1017.4
20260903194720 70 248 6.0 9.0 0.00 0.00 0.00 90 1017.3
20260903193720 70 180 8.0 10.0 0.00 0.00 0.00 90 1017.2
20260903192720 70 248 8.0 13.0 0.00 0.00 0.00 89 1017.3
20260903191801 70 248 4.0 6.0 0.00 0.00 0.00 89 1017.3
20260903190720 70 203 5.0 11.0 0.00 0.00 0.00 89 1017.4
20260903185731 70 248 6.0 9.0 0.00 0.00 0.00 89 1017.4
20260903184729 70 248 7.0 12.0 0.00 0.00 0.00 88 1017.1
20260903183720 70 248 5.0 9.0 0.00 0.00 0.00 88 1017.1
20260903182742 70 248 4.0 8.0 0.00 0.00 0.00 88 1017.1
20260903181720 70 225 6.0 10.0 0.00 0.00 0.00 88 1017.0
20260903180720 70 248 8.0 16.0 0.00 0.00 0.00 88 1017.1
20260903175730 70 248 7.0 12.0 0.00 0.00 0.00 88 1017.3
20260903174730 70 203 5.0 8.0 0.00 0.00 0.00 88 1017.2
20260903173916 70 248 7.0 11.0 0.00 0.00 0.00 88 1017.5
20260903173320 70 248 9.0 12.0 0.00 0.00 0.00 88 1017.3
20260903172320 70 225 4.0 7.0 0.00 0.00 0.00 88 1017.4
20260903171547 70 225 9.0 14.0 0.00 0.00 0.00 88 1017.3
20260903170620 70 248 8.0 15.0 0.00 0.00 0.00 87 1017.4
20260903165630 71 270 6.0 9.0 0.00 0.00 0.00 87 1017.6
20260903164712 71 248 7.0 14.0 0.00 0.00 0.00 86 1017.6
20260903163620 71 225 4.0 8.0 0.00 0.00 0.00 86 1017.6
20260903162620 71 270 7.0 13.0 0.00 0.00 0.00 86 1017.6
20260903161631 71 180 6.0 10.0 0.00 0.00 0.00 86 1017.8
20260903160620 71 225 10.0 21.0 0.00 0.00 0.00 85 1017.8
20260903155721 71 270 6.0 9.0 0.00 0.00 0.00 85 1017.9
20260903154619 71 248 7.0 9.0 0.00 0.00 0.00 84 1017.9
20260903153817 72 270 5.0 12.0 0.00 0.00 0.00 84 1017.8
20260903152820 72 225 9.0 14.0 0.00 0.00 0.00 83 1017.7
20260903151820 72 225 7.0 12.0 0.00 0.00 0.00 84 1017.8
20260903150820 72 248 5.0 8.0 0.00 0.00 0.00 83 1017.9
20260903145852 72 248 6.0 12.0 0.00 0.00 0.00 83 1017.8
20260903144819 73 248 6.0 10.0 0.00 0.00 0.00 83 1017.9
20260903143819 73 270 6.0 9.0 0.00 0.00 0.00 81 1018.0
20260903142819 73 270 6.0 10.0 0.00 0.00 0.00 80 1018.1
20260903141851 73 270 5.0 7.0 0.00 0.00 0.00 81 1018.1
20260903140850 73 270 5.0 9.0 0.00 0.00 0.00 81 1018.0
20260903135819 72 270 7.0 13.0 0.00 0.00 0.00 83 1018.1
20260903134830 72 270 7.0 12.0 0.00 0.00 0.00 84 1018.2
20260903133830 72 248 4.0 9.0 0.00 0.00 0.00 84 1018.3
20260903132819 72 248 5.0 7.0 0.00 0.00 0.00 84 1018.2
20260903131910 72 248 6.0 9.0 0.00 0.00 0.00 83 1018.2
20260903130820 72 270 6.0 9.0 0.00 0.00 0.00 83 1018.3
20260903125900 72 248 6.0 10.0 0.00 0.00 0.00 83 1018.2
20260903124820 72 270 7.0 18.0 0.00 0.00 0.00 83 1018.2
20260903123850 72 293 5.0 9.0 0.00 0.00 0.00 83 1018.0
20260903122852 72 270 6.0 13.0 0.00 0.00 0.00 82 1018.1
20260903121820 72 270 5.0 9.0 0.00 0.00 0.00 81 1018.2
20260903120841 72 248 7.0 14.0 0.00 0.00 0.00 81 1018.2
20260903115820 72 270 4.0 7.0 0.00 0.00 0.00 81 1018.3
20260903114850 72 270 6.0 12.0 0.00 0.00 0.00 81 1018.3
20260903113830 72 248 6.0 10.0 0.00 0.00 0.00 82 1018.2
20260903112840 72 248 5.0 9.0 0.00 0.00 0.00 83 1018.2
20260903111850 72 248 7.0 13.0 0.00 0.00 0.00 84 1018.1
20260903110830 72 270 5.0 7.0 0.00 0.00 0.00 84 1018.2
20260903105820 72 270 7.0 10.0 0.00 0.00 0.00 84 1018.1
20260903104830 71 270 5.0 9.0 0.00 0.00 0.00 86 1018.2